Mullan Pass, ID

4:08 AM PDT on June 29, 2017 (GMT -0700)
Mullan Pass

Weather History for KMLP - December, 2013

Change the Weather History Date:

Monday, December 16, 2013

  Actual Average (K3TH) Record (K3TH)
Temperature  
Mean Temperature 26 °F -  
Max Temperature 28 °F 29 °F 41 °F (1998)
Min Temperature 25 °F 23 °F 28 °F (1996)
Degree Days  
Heating Degree Days 38    
Moisture  
Dew Point 26 °F    
Average Humidity 94    
Maximum Humidity 100    
Minimum Humidity 75    
Precipitation  
Precipitation 0.00 in - - ()
Sea Level Pressure  
Sea Level Pressure 30.29 in    
Wind  
Wind Speed 7 mph (SW)    
Max Wind Speed 12 mph    
Max Gust Speed 28 mph    
Visibility 7 miles    
Events Fog    
Averages and records for this station are not official NWS values.
T = Trace of Precipitation, MM = Missing Value Source: NWS Daily Summary

Daily Weather History Graph

Daily Weather History Graph

Search for Another Location

Airport or City:

Trip Planner

Search our weather history database for the weather conditions in past years. The results will help you decide how hot, cold, wet, or windy it might be!

Date:

Astronomy

Dec. 16, 2013 Rise Set
Actual Time 7:24 AM PST 3:52 PM PST
Civil Twilight 6:48 AM PST 4:28 PM PST
Nautical Twilight 6:09 AM PST 5:07 PM PST
Astronomical Twilight 5:32 AM PST 5:45 PM PST
Moon 3:50 PM PST (12/16) 6:32 AM PST (12/16)
Length of Visible Light 9h 39m
Length of Day
8h 27m
Full, 100% of the Moon is Illuminated
Dec 16
Full
Dec 17
Full
Dec 25
Last Quarter
Jan 1
New
Jan 7
First Quarter

Hourly Weather History & Observations

Time (PST) Temp. Windchill Dew Point Humidity Pressure Visibility Wind Dir Wind Speed Gust Speed Precip Events Conditions
12:53 AM 28.9 °F 21.9 °F 27.0 °F 92% 30.13 in 10.0 mi Variable 6.9 mph 27.6 mph N/A   Overcast
1:20 AM 28.4 °F 21.2 °F 28.4 °F 100% 30.19 in 10.0 mi Variable 6.9 mph - N/A   Overcast
1:53 AM 28.9 °F 19.8 °F 28.0 °F 96% 30.14 in 10.0 mi WNW 10.4 mph 20.7 mph N/A   Overcast
2:53 AM 28.0 °F 18.1 °F 27.0 °F 96% 30.30 in 10.0 mi WNW 11.5 mph 24.2 mph N/A   Overcast
3:53 AM 27.0 °F 21.6 °F 27.0 °F 100% 30.30 in 1.8 mi Variable 4.6 mph 18.4 mph N/A   Overcast
4:00 AM 28.4 °F 19.1 °F 26.6 °F 93% 30.21 in 0.8 mi West 10.4 mph 19.6 mph N/A   Overcast
4:09 AM 28.4 °F 19.1 °F 26.6 °F 93% 30.21 in 1.2 mi WNW 10.4 mph 18.4 mph N/A   Overcast
4:18 AM 28.4 °F 21.2 °F 26.6 °F 93% 30.21 in 2.0 mi Variable 6.9 mph 16.1 mph N/A   Overcast
4:28 AM 28.4 °F 20.4 °F 26.6 °F 93% 30.21 in 1.2 mi West 8.1 mph - N/A   Overcast
4:36 AM 26.6 °F 20.0 °F 26.6 °F 100% 30.21 in 0.5 mi Variable 5.8 mph - N/A Fog Light Freezing Fog
4:53 AM 27.0 °F 19.5 °F 27.0 °F 100% 30.30 in 0.5 mi Variable 6.9 mph - N/A Fog Light Freezing Fog
5:33 AM 26.6 °F 20.0 °F 26.6 °F 100% 30.21 in 1.2 mi Variable 5.8 mph - N/A   Overcast
5:49 AM 26.6 °F 21.2 °F 26.6 °F 100% 30.21 in 0.5 mi Variable 4.6 mph - N/A Fog Light Freezing Fog
5:53 AM 27.0 °F 23.0 °F 27.0 °F 100% 30.30 in 0.5 mi Variable 3.5 mph - N/A Fog Light Freezing Fog
6:38 AM 26.6 °F 20.0 °F 26.6 °F 100% 30.22 in 1.5 mi Variable 5.8 mph - N/A   Overcast
6:40 AM 26.6 °F 18.2 °F 26.6 °F 100% 30.22 in 3.0 mi West 8.1 mph - N/A   Overcast
6:53 AM 27.0 °F 21.6 °F 26.1 °F 96% 30.31 in 10.0 mi Variable 4.6 mph - N/A   Overcast
7:53 AM 27.0 °F 19.5 °F 26.1 °F 96% 30.32 in 10.0 mi WSW 6.9 mph - N/A   Overcast
8:53 AM 27.0 °F 18.7 °F 26.1 °F 96% 30.36 in 10.0 mi SW 8.1 mph - N/A   Overcast
9:41 AM 26.6 °F 21.2 °F 26.6 °F 100% 30.27 in 10.0 mi Variable 4.6 mph - N/A   Overcast
9:53 AM 27.0 °F 20.5 °F 26.1 °F 96% 30.37 in 10.0 mi WSW 5.8 mph - N/A   Overcast
10:53 AM 27.0 °F 20.5 °F 26.1 °F 96% 30.37 in 6.0 mi WSW 5.8 mph - N/A   Overcast
11:02 AM 26.6 °F 20.0 °F 26.6 °F 100% 30.26 in 10.0 mi SW 5.8 mph - N/A   Overcast
11:33 AM 28.4 °F - 26.6 °F 93% 30.25 in 2.0 mi Calm Calm - N/A   Overcast
11:42 AM 28.4 °F 24.6 °F 26.6 °F 93% 30.25 in 1.8 mi Variable 3.5 mph - N/A   Overcast
11:46 AM 28.4 °F 22.2 °F 26.6 °F 93% 30.25 in 3.0 mi Variable 5.8 mph - N/A   Overcast
11:53 AM 28.0 °F 24.2 °F 27.0 °F 96% 30.35 in 9.0 mi Variable 3.5 mph - N/A   Overcast
12:13 PM 28.4 °F 22.2 °F 26.6 °F 93% 30.26 in 10.0 mi SW 5.8 mph - N/A   Overcast
12:53 PM 28.0 °F 21.7 °F 26.1 °F 92% 30.36 in 10.0 mi SW 5.8 mph - N/A   Overcast
1:21 PM 28.4 °F 23.3 °F 26.6 °F 93% 30.26 in 10.0 mi SSW 4.6 mph - N/A   Overcast
1:53 PM 28.0 °F 20.0 °F 26.1 °F 92% 30.35 in 10.0 mi SW 8.1 mph - N/A   Overcast
2:11 PM 28.4 °F 23.3 °F 26.6 °F 93% 30.27 in 10.0 mi Variable 4.6 mph - N/A   Overcast
2:21 PM 28.4 °F 21.2 °F 24.8 °F 86% 30.27 in 10.0 mi SW 6.9 mph - N/A   Overcast
2:41 PM 28.4 °F 23.3 °F 24.8 °F 86% 30.27 in 10.0 mi Variable 4.6 mph - N/A   Overcast
2:53 PM 27.0 °F 21.6 °F 25.0 °F 92% 30.38 in 10.0 mi SW 4.6 mph - N/A   Mostly Cloudy
3:07 PM 26.6 °F 20.0 °F 24.8 °F 93% 30.27 in 10.0 mi SSW 5.8 mph - N/A   Mostly Cloudy
3:53 PM 26.1 °F 19.4 °F 25.0 °F 96% 30.38 in 10.0 mi SW 5.8 mph - N/A   Partly Cloudy
4:53 PM 26.1 °F 18.4 °F 25.0 °F 96% 30.38 in 10.0 mi Variable 6.9 mph - N/A   Mostly Cloudy
5:53 PM 26.1 °F 18.4 °F 24.1 °F 92% 30.37 in 10.0 mi SW 6.9 mph - N/A   Clear
6:53 PM 26.1 °F 19.4 °F 24.1 °F 92% 30.39 in 10.0 mi SW 5.8 mph - N/A   Clear
7:53 PM 25.0 °F 18.1 °F 23.0 °F 92% 30.39 in 10.0 mi SSW 5.8 mph - N/A   Clear
8:53 PM 26.1 °F 17.6 °F 21.9 °F 84% 30.38 in 10.0 mi SSW 8.1 mph - N/A   Clear
9:53 PM 25.0 °F 14.8 °F 21.9 °F 88% 30.38 in 10.0 mi SSW 10.4 mph 16.1 mph N/A   Clear
10:53 PM 27.0 °F 16.7 °F 21.0 °F 78% 30.38 in 10.0 mi SW 11.5 mph - N/A   Clear
11:53 PM 27.0 °F 20.5 °F 19.9 °F 75% 30.35 in 10.0 mi SW 5.8 mph - N/A   Clear